Flag for United Kingdom Weather past 2 weeks in Cambridge, England, United Kingdom

Now
38 °F

Clear.


Feels Like: 29 °F
Forecast: 36 / 52 °F
Wind: 14 mph from Northwest

Location: Mildenhall Royal Air Force Base

Current Time: Mar 27, 2015 at 4:05:18 AM

Latest Report: Mar 27, 2015 at 2:58 AM


Visibility: N/A

Pressure: 29.96 "Hg

Humidity: 84%

Dew point: 33 °F

Location of CambridgeLocation

Historic Weather in Cambridge — Graph

°F

Cambridge temperature yesterday

Maximum temperature yesterday: 52 °F (at 3:58 PM)
Minimum temperature yesterday: 35 °F (at 12:58 AM)
Average temperature yesterday: 43 °F

Past Weeks' High & Low Weather Summary

 TemperatureHumidityPressure
High56 °F (Mar 12, 11:58 AM)100% (Mar 17, 7:03 AM)30.53 "Hg (Mar 17, 7:03 AM)
Low32 °F (Mar 25, 6:03 AM)31% (Mar 12, 12:58 PM)29.50 "Hg (Mar 26, 9:00 AM)
Average43 °F79%30.20 "Hg
* Reported Mar 12 2:58 AM — Mar 27 2:58 AM, Cambridge, Weather by CustomWeather, © 2015

Note: Actual official high and low records may vary slightly from our data, if they occured in-between our weather recording intervals... More about our weather records

Advertising

Cambridge weather history for previous 24 hours

 ConditionsComfort  
Time TempWeatherWind HumidityBarometerVisibility
2:58 AM
Fri, Mar 27
38 °FClear.14 mph84%29.96 "HgN/A
1:58 AM38 °FClear.13 mph83%29.94 "HgN/A
12:58 AM39 °FClear.13 mph80%29.92 "HgN/A
11:58 PM
Thu, Mar 26
39 °FClear.13 mph79%29.90 "HgN/A
10:58 PM40 °FClear.13 mph79%29.88 "HgN/A
9:58 PM41 °FClear.16 mph72%29.85 "HgN/A
8:58 PM42 °FClear.17 mph71%29.82 "HgN/A
7:58 PM44 °FClear.17 mph69%29.78 "HgN/A
6:58 PM45 °FClear.23 mph62%29.75 "HgN/A
5:58 PM47 °FSunny.14 mph61%29.72 "HgN/A
4:58 PM50 °FSunny.22 mph55%29.68 "HgN/A
3:58 PM52 °FPartly sunny.30 mph57%29.64 "HgN/A
2:58 PM50 °FMostly cloudy.24 mph67%29.61 "HgN/A
1:58 PM51 °FMore clouds than sun.22 mph72%29.58 "HgN/A
12:58 PM50 °FCloudy.24 mph82%29.54 "HgN/A
12:03 PM48 °FMostly cloudy.20 mph94%29.51 "HgN/A
11:58 AM48 °FOvercast.17 mph94%29.52 "HgN/A
11:03 AM45 °FLight rain. Overcast.12 mph93%29.50 "HgN/A
9:58 AM42 °FLow clouds.15 mph94%29.51 "HgN/A
9:00 AM39 °FOvercast.16 mph93%29.50 "HgN/A
8:58 AM40 °FLight rain. Overcast.14 mph93%29.51 "HgN/A
8:04 AM39 °FLight rain. Mostly cloudy.13 mph93%29.53 "HgN/A
7:58 AM39 °FMostly cloudy.14 mph91%29.54 "HgN/A
6:58 AM40 °FLight rain. Overcast.16 mph89%29.55 "HgN/A
5:58 AM40 °FLight rain. Mostly cloudy.20 mph86%29.59 "HgN/A
5:03 AM41 °FLight rain. Mostly cloudy.15 mph81%29.60 "HgN/A
Weather by CustomWeather, © 2015

See weather overviewHow to use our weather pages